Location: Campillo
(40.8621°N, 4.2488°W)
Time: 14:35:24
(UTC+00:00)

Centaur D AC-29 - Pass Details

Date: 05 October 2021
Orbit: 571 x 36266 km, 26.8° (Epoch: 20 October)

Event Time Altitude Azimuth Distance (km) Brightness Sun altitude
Rises 03:25:57 0° 195° (SSW) 11,838 7.2 -32.5°
Reaches altitude 10° 03:36:03 10° 186° (S) 13,473 7.5 -30.8°
Maximum altitude 08:32:12 57° 209° (SSW) 37,079 10.3 23.3°
Drops below altitude 10° 13:23:15 10° 126° (SE) 5,743 6.2 40.8°
Sets 13:25:38 0° 122° (ESE) 6,014 6.1 40.6°
